Regional Weather Roundup
Issued by NWS Green Bay, WI

Home | Current Version | Previous Version | Text Only | Print | Product List | Glossary On
Versions: 1 2 3 4 5 6 7 8 9 10 11 12 13 14 15 16 17 18 19 20 21 22 23 24 25 26 27 28 29 30 31 32 33 34 35 36 37 38 39 40 41 42 43 44 45 46 47 48 49 50
000
ASUS43 KGRB 242311
RWRGRB

NORTH-CENTRAL AND NORTHEAST WISCONSIN REGIONAL WEATHER ROUNDUP
NATIONAL WEATHER SERVICE GREEN BAY WI
600 PM CDT FRI MAR 24 2017

WIZ005-009-010>012-018-019-250000-
NORTH CENTRAL WISCONSIN

CITY           SKY/WX    TMP DP  RH WIND       PRES   REMARKS
IRONWOOD       CLOUDY    35  32  88 N7        30.15R
MANITOWISH WTR CLOUDY    34  34 100 NE6       30.11R
ARBOR VITAE    CLOUDY    37  35  93 NE8       30.09S FOG
EAGLE RIVER    CLOUDY    34  34 100 NE8       30.09S FOG
LAND O LAKES   CLOUDY    35  35 100 N5        30.12R FOG
RHINELANDER    CLOUDY    37  35  92 N5        30.09R FOG
PHILLIPS       CLOUDY    36  35  96 N10       30.10R
ANTIGO         CLOUDY    35  34  97 NE6       30.08R
TOMAHAWK       CLOUDY    36  33  90 N6        30.09R FOG
MERRILL        CLOUDY    37  36  94 NE7       30.09R
$$

WIZ013-073-250000-
NORTHEAST WISCONSIN

CITY           SKY/WX    TMP DP  RH WIND       PRES   REMARKS
IRON MOUNTAIN  CLOUDY    37  31  78 N8        30.10R
MARINETTE        N/A    N/A N/A N/A MISG        N/A
OCONTO         CLOUDY    37  35  95 E3        30.11R
$$

WIZ017-030-035>037-045-250000-
CENTRAL WISCONSIN

CITY           SKY/WX    TMP DP  RH WIND       PRES   REMARKS
MEDFORD        CLOUDY    36  33  90 N10       30.08R FOG
WAUSAU         LGT RAIN  38  36  92 N5        30.08R
MOSINEE        DRIZZLE   37  37 100 NE7       30.08R
MARSHFIELD     CLOUDY    38  38 100 NE6       30.07R
WISC RAPIDS    CLOUDY    38  37  97 NE7       30.09R
STEVENS POINT  CLOUDY    36  35  98 NE10      30.08R
WAUPACA        DRIZZLE   39  37  92 NE8       30.07S
SHAWANO        DRIZZLE   38  36  92 NE3       30.10R
CLINTONVILLE   LGT RAIN  36  36 100 NE7       30.08S
WAUTOMA        LGT RAIN  37  36  96 NE8       30.07R FOG
$$

WIZ038-039-048-051-250000-
FOX VALLEY

CITY           SKY/WX    TMP DP  RH WIND       PRES   REMARKS
NWS GREEN BAY  LGT RAIN  36  36 100 NE15      30.09S
APPLETON       DRIZZLE   36  36 100 NE15      30.04S
OSHKOSH        LGT RAIN  36  34  92 NE18G24   30.05R FOG
FOND DU LAC    CLOUDY    38  34  85 NE14      30.05R
$$

WIZ022-050-052-250000-
EAST CENTRAL WISCONSIN

CITY           SKY/WX    TMP DP  RH WIND       PRES   REMARKS
EPHRAIM        DRIZZLE   34  34 100 NE6       30.09R
WASHINGTON ISL CLOUDY    34  33  98 NE5       30.09S FOG
STURGEON BAY   LGT RAIN  35  34  96 NE6       30.11R FOG
MANITOWOC      LGT RAIN  36  34  92 N10G18    30.06F
SHEBOYGAN      LGT RAIN  37  34  89 NE21      30.02R
$$

LMZ563-521-522-541>543-250000-
LAKESHORE

STATION/POSITION TIME  TEMP    WIND        PRES    VSBY  WAVE
                       AIR SEA DIR/SP/G                  HT/PER
                 (UTC) (F)     (DEG/KT/KT) (MB)    (MI)  (FT/S)
SHEBOYGAN LKSHOR 2300   36      10/ 25/ 29 1017.4R
KEWAUNEE LKSHORE 2248   36      30/  8/ 12 1018.6R
NORTHPORT PIER   2240   33     340/  2/  2 1019.3R
SISTER BAY LKSHO 2236   35      20/  9/ 11   N/A
CHAMBERS ISLAND  2240   33      30/  4/  5 1019.0R
MENOMINEE LKSHOR 2248   33      40/  5/  8 1018.6R
$$



USA.gov is the U.S. government's official web portal to all federal, state and local government web resources and services.